Starlink 30904

operational
NORAD ID: 58364 Int'l Des: 2023-177 Owner: SPXS Country: US Constellation: starlink
LEOCIRCULAR

About Starlink 30904

Description loading...

Live Position

Loading 3D Globe...

Upcoming Passes

Altitude History

Altitude vs Time

uPlot chart will show altitude changes over time

Two-Line Element Set

1 58364U 23177P 26036.71689378 .00009711 00000-0 72811-3 0 9992
2 58364 42.9997 163.8263 0001329 246.9908 113.0794 15.02785177123420
Epoch: Feb 5, 2026 • Age: 14 hours

Current Status

Altitude 563.3 km
Velocity 7.58 km/s
Sub-Earth Point -22.54°S, 113.29°W
Launch Date Nov 18, 2023
Age 2.2 years
Type internet

Technical Details

Classification Payload
Mass 730.00 kg
Dry Mass 700.00 kg
Total Mass 730.00 kg
Length 0.30 m
Diameter 4.10 m
Span 29.00 m
Shape Box + pan
Manufacturer SPXS
Bus Type Starlink V2M
Phase Status In Orbit
Owner/State SPXS/US

Large Constellations

Loading constellations...